Hourly Data Report for September 17, 2017

All times are specified in Local Standard Time (LST). Add 1 hour to adjust for Daylight Saving Time where and when it is observed.

ARCTIC BAY CS
NUNAVUT

72°59'34.000" N
85°00'44.000" W
10.00 m
2400404
71592
XAT

Download Data

Hourly Data (September 2017)
Hourly Data Report for September 17, 2017
Temp Definition
°C
Dew Point Temp Definition
°C
Rel Hum Definition
%
Wind Dir Definition
10's deg

Wind Spd Definition
km/h
Visibility Definition
km
Stn Press Definition
kPa
Hmdx Definition


Wind Chill Definition


Weather Definition


TIME
00:00 -2.1 -5.8 76 31 15   101.37   -7 LegendNANA
01:00 -2.2 -5.9 76 32 16   101.40   -7 LegendNANA
02:00 -2.2 -5.9 76 33 15   101.40   -7 LegendNANA
03:00 -2.0 -5.4 78 32 17   101.38   -7 LegendNANA
04:00 -1.9 -5.2 78 29 13   101.36   -6 LegendNANA
05:00 -2.0 -5.0 80 26 18   101.35   -7 LegendNANA
06:00 -2.1 -5.2 80 26 14   101.33   -7 LegendNANA
07:00 -2.2 -5.4 79 24 8   101.29   -5 LegendNANA
08:00 -2.2 -5.8 76 26 5   101.28   -4 LegendNANA
09:00 -2.2 -5.8 76 28 7   101.25   -5 LegendNANA
10:00 -1.4 -5.9 71 27 2   101.22   -2 LegendNANA
11:00 -1.5 -5.7 73 16 7   101.15   -4 LegendNANA
12:00 -1.3 -6.1 70 16 8   101.12   -4 LegendNANA
13:00 -1.3 -5.8 71 13 6   101.07   -4 LegendNANA
14:00 -0.8 -5.6 70 13 7   101.03   -3 LegendNANA
15:00 -1.2 -3.3 86 8 7   101.00   -4 LegendNANA
16:00 -1.4 -2.3 94 12 8   100.90   -4 LegendNANA
17:00 -1.2 -2.0 94 6 6   100.81   -3 LegendNANA
18:00 -0.7 -1.9 92 12 9   100.74   -4 LegendNANA
19:00 -0.8 -2.2 90 6 10   100.70   -4 LegendNANA
20:00 -0.5 -2.0 90 10 7   100.65   -3 LegendNANA
21:00 -0.6 -2.0 90 10 8   100.63   -3 LegendNANA
22:00 -0.7 -1.7 93 12 5   100.57   -2 LegendNANA
23:00 -0.8 -1.4 95 13 3   100.52   -2 LegendNANA

Notes on Data Quality.

Legend

  • E = Estimated
  • M = Missing
  • NA = Not Available
  • ‡ = Partner data that is not subject to review by the National Climate Archives
Date modified: